View from above orbital plane
|
View from above satellite
|
Ground track
|
The orbit data is extracted from the following two-line orbital elements,
1 31793U 07029B 21018.84133259 .00000078 00000-0 65799-4 0 9993
2 31793 70.9764 153.9076 0002694 277.5480 193.0272 14.14444507700110
Epoch (UTC): | 18 January 2021 20:11:31 |
Eccentricity: | 0.0002694 |
inclination: | 70.9764° |
perigee height: | 842 km |
apogee height: | 846 km |
right ascension of ascending node: | 153.9076° |
argument of perigee: | 277.5480° |
revolutions per day: | 14.14444507 |
mean anomaly at epoch: | 193.0272° |
orbit number at epoch: | 70011 |
The dashed part of the orbit path shows where the satellite is in the earth's shadow,
|
|